1 Minute Report
Date Time Wind Direction Wind Speed Wind Gust Wind Variable Altimeter Temperature Dewpoint Relative Humidity Visibility Ceiling Precip Present Weather Density Alt Wind Chill Heat Index
18/06/21 06:03 000 00 N/A N/A 29.83 53(F), 12(C) 53(F), 12(C) 100% 7 CLR N/A N/A N/A 53 F N/A 4228
18/06/21 06:02 000 00 N/A N/A 29.83 53(F), 12(C) 53(F), 12(C) 100% 7 CLR N/A N/A N/A 53 F N/A 4227
18/06/21 06:01 000 00 N/A N/A 29.83 53(F), 12(C) 53(F), 12(C) 100% 7 CLR N/A N/A N/A 53 F N/A 4226
18/06/21 06:00 000 00 N/A N/A 29.83 53(F), 12(C) 53(F), 12(C) 100% 4 CLR N/A Mist N/A 53 F N/A 4225
18/06/21 05:59 000 00 N/A N/A 29.83 53(F), 12(C) 53(F), 12(C) 100% 4 CLR N/A Mist N/A 53 F N/A 4224
18/06/21 05:58 000 00 N/A N/A 29.83 53(F), 12(C) 53(F), 12(C) 100% 4 CLR N/A Mist N/A 53 F N/A 4223
18/06/21 05:57 000 00 N/A N/A 29.83 53(F), 12(C) 53(F), 12(C) 100% 4 CLR N/A Mist N/A 53 F N/A 4222
18/06/21 05:56 000 00 N/A N/A 29.83 53(F), 12(C) 53(F), 12(C) 100% 4 CLR N/A Mist N/A 53 F N/A 4221
18/06/21 05:55 000 00 N/A N/A 29.83 53(F), 12(C) 53(F), 12(C) 100% 4 CLR N/A Mist N/A 53 F N/A 4220
18/06/21 05:54 000 00 N/A N/A 29.83 53(F), 12(C) 53(F), 12(C) 100% 4 CLR N/A Mist N/A 53 F N/A 4219
18/06/21 05:53 000 00 N/A N/A 29.83 53(F), 12(C) 53(F), 12(C) 100% 4 CLR N/A Mist N/A 53 F N/A 4218
18/06/21 05:52 000 00 N/A N/A 29.83 53(F), 12(C) 53(F), 12(C) 100% 4 CLR N/A Mist N/A 53 F N/A 4217
18/06/21 05:51 000 00 N/A N/A 29.83 53(F), 12(C) 53(F), 12(C) 100% 5 CLR N/A Mist N/A 53 F N/A 4216
18/06/21 05:50 000 00 N/A N/A 29.83 53(F), 12(C) 53(F), 12(C) 100% 7 CLR N/A N/A N/A 53 F N/A 4215
18/06/21 05:49 000 00 N/A N/A 29.83 53(F), 12(C) 53(F), 12(C) 100% 7 CLR N/A N/A N/A 53 F N/A 4214
18/06/21 05:48 000 00 N/A N/A 29.83 53(F), 12(C) 53(F), 12(C) 100% 7 CLR N/A N/A N/A 53 F N/A 4213
18/06/21 05:47 000 00 N/A N/A 29.83 53(F), 12(C) 53(F), 12(C) 100% 7 CLR N/A N/A N/A 53 F N/A 4212
18/06/21 05:46 000 00 N/A N/A 29.83 53(F), 12(C) 53(F), 12(C) 100% 7 CLR N/A N/A N/A 53 F N/A 4211
18/06/21 05:45 000 00 N/A N/A 29.83 53(F), 12(C) 53(F), 12(C) 100% 10 CLR N/A N/A N/A 53 F N/A 4210
18/06/21 05:44 000 00 N/A N/A 29.83 53(F), 12(C) 53(F), 12(C) 100% 10 CLR N/A N/A N/A 53 F N/A 4209
18/06/21 05:43 000 00 N/A N/A 29.83 53(F), 12(C) 53(F), 12(C) 100% 10 CLR N/A N/A N/A 53 F N/A 4208
18/06/21 05:42 000 00 N/A N/A 29.83 53(F), 12(C) 53(F), 12(C) 100% 10 CLR N/A N/A N/A 53 F N/A 4207
18/06/21 05:41 000 00 N/A N/A 29.83 53(F), 12(C) 53(F), 12(C) 100% 10 CLR N/A N/A N/A 53 F N/A 4206
18/06/21 05:40 000 00 N/A N/A 29.83 53(F), 12(C) 53(F), 12(C) 100% 10 CLR N/A N/A N/A 53 F N/A 4205
18/06/21 05:39 000 00 N/A N/A 29.83 53(F), 12(C) 53(F), 12(C) 100% 10 CLR N/A N/A N/A 53 F N/A 4204
18/06/21 05:38 000 00 N/A N/A 29.83 53(F), 12(C) 53(F), 12(C) 100% 7 CLR N/A N/A N/A 53 F N/A 4203
18/06/21 05:37 000 00 N/A N/A 29.83 53(F), 12(C) 53(F), 12(C) 100% 7 CLR N/A N/A N/A 53 F N/A 4202
18/06/21 05:36 000 00 N/A N/A 29.83 53(F), 12(C) 53(F), 12(C) 100% 7 CLR N/A N/A N/A 53 F N/A 4201
18/06/21 05:35 000 00 N/A N/A 29.83 53(F), 12(C) 53(F), 12(C) 100% 7 CLR N/A N/A N/A 53 F N/A 4200
18/06/21 05:34 000 00 N/A N/A 29.83 53(F), 12(C) 53(F), 12(C) 100% 7 CLR N/A N/A N/A 53 F N/A 4199
18/06/21 05:33 000 00 N/A N/A 29.83 53(F), 12(C) 53(F), 12(C) 100% 7 CLR N/A N/A N/A 53 F N/A 4198
18/06/21 05:32 000 00 N/A N/A 29.84 53(F), 12(C) 53(F), 12(C) 100% 7 CLR N/A N/A N/A 53 F N/A 4197
18/06/21 05:31 000 00 N/A N/A 29.84 53(F), 12(C) 53(F), 12(C) 100% 7 CLR N/A N/A N/A 53 F N/A 4196
18/06/21 05:30 000 00 N/A N/A 29.84 53(F), 12(C) 53(F), 12(C) 100% 10 CLR N/A N/A N/A 53 F N/A 4195
18/06/21 05:29 000 00 N/A N/A 29.84 53(F), 12(C) 53(F), 12(C) 100% 10 CLR N/A N/A N/A 53 F N/A 4194
18/06/21 05:28 000 00 N/A N/A 29.84 53(F), 12(C) 53(F), 12(C) 100% 10 CLR N/A N/A N/A 53 F N/A 4193
18/06/21 05:27 000 00 N/A N/A 29.84 53(F), 12(C) 53(F), 12(C) 100% 10 CLR N/A N/A N/A 53 F N/A 4192
18/06/21 05:26 000 00 N/A N/A 29.84 53(F), 12(C) 53(F), 12(C) 100% 10 CLR N/A N/A N/A 53 F N/A 4191
18/06/21 05:25 000 00 N/A N/A 29.84 53(F), 12(C) 53(F), 12(C) 100% 10 CLR N/A N/A N/A 53 F N/A 4190
18/06/21 05:24 000 00 N/A N/A 29.84 53(F), 12(C) 53(F), 12(C) 100% 10 CLR N/A N/A N/A 53 F N/A 4189
18/06/21 05:23 000 00 N/A N/A 29.84 53(F), 12(C) 53(F), 12(C) 100% 10 CLR N/A N/A N/A 53 F N/A 4188
18/06/21 05:22 000 00 N/A N/A 29.84 53(F), 12(C) 53(F), 12(C) 100% 10 CLR N/A N/A N/A 53 F N/A 4187
18/06/21 05:21 000 00 N/A N/A 29.84 53(F), 12(C) 53(F), 12(C) 100% 10 CLR N/A N/A N/A 53 F N/A 4186
18/06/21 05:20 000 00 N/A N/A 29.84 53(F), 12(C) 53(F), 12(C) 100% 10 CLR N/A N/A N/A 53 F N/A 4185
18/06/21 05:19 000 00 N/A N/A 29.84 53(F), 12(C) 53(F), 12(C) 100% 10 CLR N/A N/A N/A 53 F N/A 4184
18/06/21 05:18 000 00 N/A N/A 29.84 53(F), 12(C) 53(F), 12(C) 100% 10 CLR N/A N/A N/A 53 F N/A 4183
18/06/21 05:17 000 00 N/A N/A 29.84 53(F), 12(C) 53(F), 12(C) 100% 10 CLR N/A N/A N/A 53 F N/A 4182
18/06/21 05:16 000 00 N/A N/A 29.84 53(F), 12(C) 53(F), 12(C) 100% 10 CLR N/A N/A N/A 53 F N/A 4181
18/06/21 05:15 000 00 N/A N/A 29.84 53(F), 12(C) 53(F), 12(C) 100% 10 CLR N/A N/A N/A 53 F N/A 4180
18/06/21 05:14 000 00 N/A N/A 29.84 53(F), 12(C) 53(F), 12(C) 100% 10 CLR N/A N/A N/A 53 F N/A 4179
18/06/21 05:13 000 00 N/A N/A 29.84 53(F), 12(C) 53(F), 12(C) 100% 10 CLR N/A N/A N/A 53 F N/A 4178
18/06/21 05:12 000 00 N/A N/A 29.84 53(F), 12(C) 53(F), 12(C) 100% 10 CLR N/A N/A N/A 53 F N/A 4177
18/06/21 05:11 000 00 N/A N/A 29.84 53(F), 12(C) 53(F), 12(C) 100% 10 CLR N/A N/A N/A 53 F N/A 4176
18/06/21 05:10 000 00 N/A N/A 29.84 53(F), 12(C) 53(F), 12(C) 100% 10 CLR N/A N/A N/A 53 F N/A 4175
18/06/21 05:09 000 00 N/A N/A 29.84 53(F), 12(C) 53(F), 12(C) 100% 10 CLR N/A N/A N/A 53 F N/A 4174
18/06/21 05:08 000 00 N/A N/A 29.84 53(F), 12(C) 53(F), 12(C) 100% 10 CLR N/A N/A N/A 53 F N/A 4173
18/06/21 05:07 000 00 N/A N/A 29.84 53(F), 12(C) 53(F), 12(C) 100% 10 CLR N/A N/A N/A 53 F N/A 4172
18/06/21 05:06 000 00 N/A N/A 29.84 53(F), 12(C) 53(F), 12(C) 100% 10 CLR N/A N/A N/A 53 F N/A 4171
18/06/21 05:05 000 00 N/A N/A 29.84 53(F), 12(C) 53(F), 12(C) 100% 10 CLR N/A N/A N/A 53 F N/A 4170
18/06/21 05:04 000 00 N/A N/A 29.84 53(F), 12(C) 53(F), 12(C) 100% 10 CLR N/A N/A N/A 53 F N/A 4169
18/06/21 05:03 000 00 N/A N/A 29.84 53(F), 12(C) 53(F), 12(C) 100% 10 CLR N/A N/A N/A 53 F N/A 4168
18/06/21 05:02 000 00 N/A N/A 29.84 53(F), 12(C) 53(F), 12(C) 100% 10 CLR N/A N/A N/A 53 F N/A 4167
18/06/21 05:01 000 00 N/A N/A 29.84 53(F), 12(C) 53(F), 12(C) 100% 10 CLR N/A N/A N/A 53 F N/A 4166
18/06/21 05:00 000 00 N/A N/A 29.84 53(F), 12(C) 53(F), 12(C) 100% 10 CLR N/A N/A N/A 53 F N/A 4165
18/06/21 04:59 000 00 N/A N/A 29.84 53(F), 12(C) 53(F), 12(C) 100% 10 CLR N/A N/A N/A 53 F N/A 4164
18/06/21 04:58 000 00 N/A N/A 29.84 53(F), 12(C) 53(F), 12(C) 100% 10 CLR N/A N/A N/A 53 F N/A 4163
18/06/21 04:57 000 00 N/A N/A 29.84 53(F), 12(C) 53(F), 12(C) 100% 10 CLR N/A N/A N/A 53 F N/A 4162
18/06/21 04:56 000 00 N/A N/A 29.84 53(F), 12(C) 53(F), 12(C) 100% 10 CLR N/A N/A N/A 53 F N/A 4161
18/06/21 04:55 000 00 N/A N/A 29.84 53(F), 12(C) 53(F), 12(C) 100% 10 CLR N/A N/A N/A 53 F N/A 4160
18/06/21 04:54 000 00 N/A N/A 29.84 53(F), 12(C) 53(F), 12(C) 100% 10 CLR N/A N/A N/A 53 F N/A 4159
18/06/21 04:53 000 00 N/A N/A 29.84 53(F), 12(C) 53(F), 12(C) 100% 10 CLR N/A N/A N/A 53 F N/A 4158
18/06/21 04:52 000 00 N/A N/A 29.84 53(F), 12(C) 53(F), 12(C) 100% 10 CLR N/A N/A N/A 53 F N/A 4157
18/06/21 04:51 000 00 N/A N/A 29.84 53(F), 12(C) 53(F), 12(C) 100% 10 CLR N/A N/A N/A 53 F N/A 4156
18/06/21 04:50 000 00 N/A N/A 29.84 53(F), 12(C) 53(F), 12(C) 100% 10 CLR N/A N/A N/A 53 F N/A 4155
18/06/21 04:49 000 00 N/A N/A 29.84 53(F), 12(C) 53(F), 12(C) 100% 10 CLR N/A N/A N/A 53 F N/A 4154
18/06/21 04:48 000 00 N/A N/A 29.84 53(F), 12(C) 53(F), 12(C) 100% 10 CLR N/A N/A N/A 53 F N/A 4153
18/06/21 04:47 000 00 N/A N/A 29.84 53(F), 12(C) 53(F), 12(C) 100% 10 CLR N/A N/A N/A 53 F N/A 4152
18/06/21 04:46 000 00 N/A N/A 29.84 53(F), 12(C) 53(F), 12(C) 100% 10 CLR N/A N/A N/A 53 F N/A 4151
18/06/21 04:45 000 00 N/A N/A 29.84 53(F), 12(C) 53(F), 12(C) 100% 10 CLR N/A N/A N/A 53 F N/A 4150
18/06/21 04:44 000 00 N/A N/A 29.84 53(F), 12(C) 53(F), 12(C) 100% 10 CLR N/A N/A N/A 53 F N/A 4149
18/06/21 04:43 000 00 N/A N/A 29.84 53(F), 12(C) 53(F), 12(C) 100% 10 CLR N/A N/A N/A 53 F N/A 4148
18/06/21 04:42 000 00 N/A N/A 29.84 53(F), 12(C) 53(F), 12(C) 100% 10 CLR N/A N/A N/A 53 F N/A 4147
18/06/21 04:41 000 00 N/A N/A 29.84 53(F), 12(C) 53(F), 12(C) 100% 10 CLR N/A N/A N/A 53 F N/A 4146
18/06/21 04:40 000 00 N/A N/A 29.84 53(F), 12(C) 53(F), 12(C) 100% 10 CLR N/A N/A N/A 53 F N/A 4145
18/06/21 04:39 000 00 N/A N/A 29.84 53(F), 12(C) 53(F), 12(C) 100% 10 CLR N/A N/A N/A 53 F N/A 4144
18/06/21 04:38 000 00 N/A N/A 29.84 53(F), 12(C) 53(F), 12(C) 100% 10 CLR N/A N/A N/A 53 F N/A 4143
18/06/21 04:37 000 00 N/A N/A 29.84 53(F), 12(C) 53(F), 12(C) 100% 10 CLR N/A N/A N/A 53 F N/A 4142
18/06/21 04:36 000 00 N/A N/A 29.84 53(F), 12(C) 53(F), 12(C) 100% 10 CLR N/A N/A N/A 53 F N/A 4141
18/06/21 04:35 000 00 N/A N/A 29.84 53(F), 12(C) 53(F), 12(C) 100% 10 CLR N/A N/A N/A 53 F N/A 4140
18/06/21 04:34 000 00 N/A N/A 29.84 53(F), 12(C) 53(F), 12(C) 100% 10 CLR N/A N/A N/A 53 F N/A 4139
18/06/21 04:33 000 00 N/A N/A 29.84 53(F), 12(C) 53(F), 12(C) 100% 10 CLR N/A N/A N/A 53 F N/A 4138
18/06/21 04:32 000 00 N/A N/A 29.84 53(F), 12(C) 53(F), 12(C) 100% 10 CLR N/A N/A N/A 53 F N/A 4137
18/06/21 04:31 000 00 N/A N/A 29.84 53(F), 12(C) 53(F), 12(C) 100% 10 CLR N/A N/A N/A 53 F N/A 4136
18/06/21 04:30 000 00 N/A N/A 29.84 53(F), 12(C) 53(F), 12(C) 100% 10 CLR N/A N/A N/A 53 F N/A 4135
18/06/21 04:29 000 00 N/A N/A 29.84 53(F), 12(C) 53(F), 12(C) 100% 10 CLR N/A N/A N/A 53 F N/A 4134
18/06/21 04:28 000 00 N/A N/A 29.84 53(F), 12(C) 53(F), 12(C) 100% 10 CLR N/A N/A N/A 53 F N/A 4133
18/06/21 04:27 000 00 N/A N/A 29.84 53(F), 12(C) 53(F), 12(C) 100% 10 CLR N/A N/A N/A 53 F N/A 4132
18/06/21 04:26 000 00 N/A N/A 29.84 53(F), 12(C) 53(F), 12(C) 100% 10 CLR N/A N/A N/A 53 F N/A 4131
18/06/21 04:25 000 00 N/A N/A 29.84 53(F), 12(C) 53(F), 12(C) 100% 10 CLR N/A N/A N/A 53 F N/A 4130
18/06/21 04:24 000 00 N/A N/A 29.84 53(F), 12(C) 53(F), 12(C) 100% 10 CLR N/A N/A N/A 53 F N/A 4129
18/06/21 04:23 000 00 N/A N/A 29.84 53(F), 12(C) 53(F), 12(C) 100% 10 CLR N/A N/A N/A 53 F N/A 4128
18/06/21 04:22 000 00 N/A N/A 29.84 53(F), 12(C) 53(F), 12(C) 100% 10 CLR N/A N/A N/A 53 F N/A 4127
18/06/21 04:21 000 00 N/A N/A 29.84 53(F), 12(C) 53(F), 12(C) 100% 10 CLR N/A N/A N/A 53 F N/A 4126
18/06/21 04:20 000 00 N/A N/A 29.84 53(F), 12(C) 53(F), 12(C) 100% 10 CLR N/A N/A N/A 53 F N/A 4125
18/06/21 04:19 000 00 N/A N/A 29.84 53(F), 12(C) 53(F), 12(C) 100% 10 CLR N/A N/A N/A 53 F N/A 4124
18/06/21 04:18 000 00 N/A N/A 29.84 53(F), 12(C) 53(F), 12(C) 100% 10 CLR N/A N/A N/A 53 F N/A 4123
18/06/21 04:17 000 00 N/A N/A 29.84 53(F), 12(C) 53(F), 12(C) 100% 10 CLR N/A N/A N/A 53 F N/A 4122
18/06/21 04:16 000 00 N/A N/A 29.84 53(F), 12(C) 53(F), 12(C) 100% 10 CLR N/A N/A N/A 53 F N/A 4121
18/06/21 04:15 000 00 N/A N/A 29.84 53(F), 12(C) 53(F), 12(C) 100% 10 CLR N/A N/A N/A 53 F N/A 4120
18/06/21 04:14 000 00 N/A N/A 29.84 53(F), 12(C) 53(F), 12(C) 100% 10 CLR N/A N/A N/A 53 F N/A 4119
18/06/21 04:13 000 00 N/A N/A 29.84 53(F), 12(C) 53(F), 12(C) 100% 10 CLR N/A N/A N/A 53 F N/A 4118
18/06/21 04:12 000 00 N/A N/A 29.84 53(F), 12(C) 53(F), 12(C) 100% 10 CLR N/A N/A N/A 53 F N/A 4117
18/06/21 04:11 000 00 N/A N/A 29.84 53(F), 12(C) 53(F), 12(C) 100% 10 CLR N/A N/A N/A 53 F N/A 4116
18/06/21 04:10 000 00 N/A N/A 29.84 53(F), 12(C) 53(F), 12(C) 100% 10 CLR N/A N/A N/A 53 F N/A 4115
18/06/21 04:09 000 00 N/A N/A 29.84 53(F), 12(C) 53(F), 12(C) 100% 10 CLR N/A N/A N/A 53 F N/A 4114
18/06/21 04:08 000 00 N/A N/A 29.84 53(F), 12(C) 53(F), 12(C) 100% 10 CLR N/A N/A N/A 53 F N/A 4113
18/06/21 04:07 000 00 N/A N/A 29.84 53(F), 12(C) 53(F), 12(C) 100% 10 CLR N/A N/A N/A 53 F N/A 4112
18/06/21 04:06 000 00 N/A N/A 29.84 53(F), 12(C) 53(F), 12(C) 100% 10 CLR N/A N/A N/A 53 F N/A 4111
18/06/21 04:05 000 00 N/A N/A 29.84 53(F), 12(C) 53(F), 12(C) 100% 10 CLR N/A N/A N/A 53 F N/A 4110
18/06/21 04:04 000 00 N/A N/A 29.84 53(F), 12(C) 53(F), 12(C) 100% 10 CLR N/A N/A N/A 53 F N/A 4109
18/06/21 04:03 000 00 N/A N/A 29.84 53(F), 12(C) 53(F), 12(C) 100% 10 CLR N/A N/A N/A 53 F N/A 4108